Location: Alsip
(41.6689°N, 87.7387°W)
Time: 15:21:33
(UTC+00:00)

SL-16 R/B - Pass Details

Date: 14 July 2020
Orbit: 839 x 850 km, 71.0° (Epoch: 12 August)

Event Time Altitude Azimuth Distance (km) Brightness Sun altitude
Exits shadow 02:09:50 - 134° (SE) 2,522 4.0 -7.8°
Reaches altitude 10° 02:10:07 10° 131° (SE) 2,460 3.9 -7.8°
Maximum altitude 02:13:13 15° 98° (E) 2,121 3.8 -8.3°
Drops below altitude 10° 02:16:19 10° 64° (ENE) 2,473 4.4 -8.7°
Sets 02:19:49 0° 43° (NE) 3,416 5.3 -9.2°
